www.pogodaiklimat.ru

Погода и климат >> Архив погоды >> Эстония >> Нарва


АРХИВ ПОГОДЫ в Нарве

Время (UTC), дата Ветер
(напр.,м/с)
 
Видим.   Явления Облачность Т
(С)
Тd
(С)
f
(%)
Тe
(С)
Тes
(С)
Комфортность P
(гПа)
Po
(гПа)
Тmin
(С)
Tmax
(С)
R
(мм)
R24
(мм)
S
(см)
13 15.09 ЮЗ 6 20 км н/о +11.9 +9.0 82 +9 +9 по сезону 992.8 989.5
14 15.09 Ю 7 6000 м н/о +11.9 +9.7 86 +9 +9 по сезону 990.8 987.5 0.3
15 15.09 ЮЗ 7-10
{14}
20 км слаб. ливневой дождь 9/8 300 м
[As trans Ci fib]
+12.8 +6.0 63 +10 +10 по сезону 989.9 986.5 +6.0 +12.8 1
16 15.09 ЮЗ 6 20 км н/о +11.6 +7.8 77 +9 +9 тепло 990.4 987.0 0.2
17 15.09 ЮЗ 5 20 км н/о +10.6 +6.9 78 +8 +8 по сезону 990.7 987.3
18 15.09 ЮЗ 5 20 км {ливн. осадки} ясно +9.9 +9.2 95 +7 +7 по сезону 991.0 987.6 +9.2 +12.8 0.2
19 15.09 ЮЗ 7 20 км н/о +10.1 +6.7 79 +6 +6 по сезону 990.9 987.6
20 15.09 ЮЗ 6 20 км н/о +9.8 +6.0 77 +6 +6 по сезону 990.8 987.4
21 15.09 ЮЗ 6-8
{11}
20 км 1/0
[Ac cuf Ci ing]
+9.2 +9.2 100 +6 +6 по сезону 990.8 987.4 +9.2 +12.8
22 15.09 ЮЗ 5 20 км н/о +9.0 +6.2 83 +6 +6 тепло 990.5 987.1
23 15.09 З 7 20 км н/о +9.5 +5.7 77 +6 +6 по сезону 990.9 987.5
00 16.09 ЮЗ 6-8
{13}
20 км в посл. час дождь {ливн. осадки} 6/1
[Ac cuf Ci]
+8.3 +8.2 99 +4 +4 прохладно 990.3 986.9 +8.2 +12.8 0.9
01 16.09 ЮЗ 6 20 км н/о +8.1 +5.3 82 +4 +4 по сезону 990.2 986.8
02 16.09 ЮЗ 6 20 км н/о +8.4 +4.9 79 +4 +4 по сезону 989.7 986.3
03 16.09 ЮЗ 6-10
{11}
20 км 1/1
[Ac As Ci sp]
+8.4 +7.9 97 +4 +4 прохладно 989.7 986.4 +7.9 +12.8
04 16.09 ЮЗ 5 20 км н/о +8.5 +5.6 82 +5 +5 по сезону 989.2 985.9
05 16.09 ЮЗ 6 20 км н/о +9.3 +5.9 79 +6 +6 по сезону 989.1 985.7
06 16.09 ЮЗ 6 20 км слаб. дождь 4/4 1000 м
[Ac lent Cc]
+10.6 +7.9 83 +7 +7 по сезону 988.7 985.3 +7.9 +10.7
07 16.09 З 7 12 км н/о +11.0 +6.8 75 +8 +8 по сезону 988.7 985.3 0.5
08 16.09 З 7 20 км н/о +11.2 +7.3 77 +8 +8 по сезону 988.9 985.5 0.2
09 16.09 З 7-11
{12}
20 км сильн. дождь {ливн. осадки} 9/9 300 м
[As trans Ci ing]
+10.9 +7.9 82 +7 +8 прохладно 989.4 986.1 +7.9 +11.8 4
10 16.09 З 6 20 км н/о +12.7 +6.6 66 +10 +10 по сезону 989.9 986.6
11 16.09 СЗ 7 20 км н/о +12.6 +4.8 59 +10 +10 по сезону 990.5 987.2
12 16.09 СЗ 6 20 км слаб. ливневой дождь 9/9 600 м
[As op Cc]
+12.9 +7.9 72 +11 +11 по сезону 990.9 987.5
13 16.09 З 6 20 км н/о +12.5 +4.8 59 +10 +10 по сезону 991.5 988.2
14 16.09 СЗ 4 20 км н/о +12.1 +4.8 61 +10 +10 по сезону 992.2 988.8
15 16.09 СЗ 4
{11}
20 км ливневой дождь 9/9 300 м
[As trans Cs]
+10.7 +8.3 85 +8 +8 прохладно 992.5 989.2 +8.3 +13.1 0.7
16 16.09 СЗ 4 20 км н/о +10.8 +5.5 70 +9 +9 тепло 992.8 989.4
17 16.09 СЗ 3 20 км н/о +11.1 +5.1 66 +9 +9 по сезону 993.1 989.8
18 16.09 С 3 20 км слаб. ливневой дождь 9/5 600 м
[As op Ci fib]
+9.4 +9.4 100 +7 +7 по сезону 993.6 990.2 +9.4 +13.1 0.3
19 16.09 З 1 19 км н/о +8.8 +6.5 85 +8 +8 тепло 994.0 990.6 0.6
20 16.09 Ю 1 20 км н/о +8.5 +6.7 88 +8 +8 по сезону 994.2 990.8 0.6
21 16.09 ЮЗ 2 20 км слаб. дождь 9/9 300 м
[As trans Ci ing]
+8.8 +8.4 97 +7 +7 по сезону 994.4 991.0 +8.4 +13.1 2
22 16.09 Ю 2 12 км н/о +8.6 +6.9 89 +7 +7 тепло 994.5 991.1 4
23 16.09 ЮЗ 1 20 км н/о +7.7 +6.0 89 +7 +7 по сезону 994.5 991.1 0.3
00 17.09 ЮЗ 2 18 км слаб. ливневой дождь 9/8 600 м
[As op Cs]
+8.0 +7.5 97 +6 +6 по сезону 994.6 991.2 +7.5 +12.9 5
01 17.09 ЮЗ 1 8000 м н/о +7.3 +5.3 87 +6 +6 по сезону 994.7 991.3
02 17.09 Ю 1 1100 м н/о +6.2 +4.5 89 +5 +5 по сезону 994.7 991.3
03 17.09 З 1 20 км в посл. час туман 5/1 600 м
[As op Cc]
+5.8 +5.6 99 +5 +5 прохладно 994.8 991.4 +5.6 +11.2
04 17.09 СЗ 2 20 км н/о +8.3 +3.5 72 +7 +7 тепло 994.7 991.3
05 17.09 З 3 20 км н/о +8.0 +5.7 85 +5 +5 по сезону 994.9 991.5
06 17.09 СЗ 3 20 км слаб. дождь 9/9 600 м
[As op Cs]
+9.5 +5.6 77 +7 +7 по сезону 995.1 991.7 +5.6 +9.7
07 17.09 ЮЗ 3 20 км н/о +8.8 +5.0 77 +6 +6 по сезону 995.3 992.0
08 17.09 СЗ 2 20 км н/о +10.3 +3.3 62 +9 +9 по сезону 995.6 992.2
09 17.09 СЗ 3 20 км 10/10 600 м
[Ac trans Ci ing]
+10.0 +5.6 74 +8 +8 по сезону 995.9 992.6 +5.6 +10.4
10 17.09 З 2 20 км н/о +9.6 +4.3 70 +8 +8 по сезону 996.3 992.9
11 17.09 СЗ 2 20 км н/о +10.0 +3.9 66 +9 +9 по сезону 996.5 993.1
12 17.09 З 3 20 км {ливн. осадки} 9/9 600 м
[As op Cs]
+11.1 +5.6 69 +10 +10 прохладно 996.4 993.1
13 17.09 СЗ 4 20 км н/о +10.7 +2.4 56 +9 +9 по сезону 996.5 993.1
14 17.09 СЗ 3 20 км н/о +11.0 +2.3 55 +9 +9 по сезону 996.5 993.1
15 17.09 З 2 20 км 1/1 1000 м
[Ac und]
+10.3 +5.8 74 +9 +10 по сезону 996.5 993.2 +5.8 +11.3
16 17.09 С 2 20 км н/о +9.3 +3.2 66 +8 +8 тепло 996.5 993.1
17 17.09 Ю 1 20 км н/о +7.8 +5.2 84 +7 +7 по сезону 996.6 993.2 0.2
18 17.09 Ю 2 20 км {ливн. осадки} 9/4 1000 м
[Ac lent Cs]
+6.9 +6.9 100 +5 +5 прохладно 996.6 993.2 +6.9 +11.3 0.2
19 17.09 Ю 1 20 км н/о +6.7 +4.0 83 +6 +6 по сезону 996.6 993.2
20 17.09 З 1 20 км н/о +6.2 +4.3 88 +5 +5 по сезону 996.7 993.3
21 17.09 ЮЗ 1 12 км 9/9 600 м
[As op Cs]
+5.9 +5.3 96 +5 +5 прохладно 996.6 993.1 +5.3 +11.3
22 17.09 С 1 17 км н/о +6.3 +4.6 89 +5 +5 по сезону 996.6 993.2
23 17.09 СВ 1 8000 м н/о +5.9 +4.2 89 +5 +5 по сезону 996.8 993.3
00 18.09 С 1 800 м туман {дымка} 9/6 1000 м
[Ac trans Cs]
+5.8 +5.0 95 +5 +5 по сезону 996.9 993.5
01 18.09 С 1 15 км н/о +5.9 +4.2 89 +5 +5 по сезону 997.2 993.7
02 18.09 СВ 2 19 км н/о +5.8 +4.2 89 +3 +3 по сезону 997.5 994.0
03 18.09 СВ 2 20 км {туман} 9/9 300 м
[As trans Cc]
+6.2 +5.0 92 +4 +4 прохладно 997.9 994.5 +5.0 +10.3
04 18.09 СВ 1 20 км н/о +6.9 +5.2 89 +6 +6 по сезону 998.3 994.8
05 18.09 С 2 20 км н/о +7.7 +5.8 88 +6 +6 по сезону 999.1 995.6
06 18.09 С 2 20 км слаб. ливневой дождь 9/9 300 м
[As trans Ci sp]
+8.9 +5.0 77 +7 +7 по сезону 999.6 996.2 +5.0 +9.1
07 18.09 СВ 3 20 км н/о +10.1 +5.6 74 +8 +8 по сезону 999.9 996.5
08 18.09 СВ 4 20 км н/о +9.3 +3.9 69 +7 +7 по сезону 1000.7 997.3
09 18.09 С 3 20 км слаб. ливневой дождь 9/9 1000 м
[Ac lent Ci sp]
+11.5 +5.0 64 +10 +10 по сезону 1001.2 997.9 +5.0 +11.7
10 18.09 СВ 3 15 км н/о +9.3 +5.4 77 +7 +7 прохладно 1002.0 998.6 0.3
11 18.09 СВ 4 20 км н/о +10.1 +5.0 71 +8 +8 прохладно 1002.3 998.9 1
12 18.09 С 5 13 км слаб. ливневой дождь 9/8 600 м
[As op Ci ing]
+9.4 +5.0 74 +6 +6 холодно 1003.2 999.8 1
13 18.09 СЗ 2 20 км н/о +10.7 +6.1 73 +9 +9 по сезону 1003.6 1000.2 0.3
14 18.09 С 3 20 км н/о +10.0 +4.1 67 +8 +8 по сезону 1004.2 1000.8
15 18.09 С 3 20 км в посл. час дождь {ливн. осадки} 6/6 1000 м
[Ac und]
+9.4 +6.1 80 +7 +7 прохладно 1004.8 1001.4 +6.1 +11.7 0.5
16 18.09 СВ 4 20 км н/о +7.9 +4.1 77 +5 +5 по сезону 1005.8 1002.3 0.2
17 18.09 СВ 3 20 км н/о +7.5 +4.5 81 +5 +5 по сезону 1006.3 1002.9 0.2
18 18.09 СЗ 2 17 км слаб. ливневой дождь 9/9 600 м
[As op Cs]
+7.2 +7.2 100 +5 +5 прохладно 1007.1 1003.6 +7.2 +11.7 0.6
19 18.09 С 3 11 км н/о +7.2 +4.9 85 +4 +4 по сезону 1007.7 1004.3 2
20 18.09 СВ 1 20 км н/о +6.9 +4.7 86 +6 +6 по сезону 1008.0 1004.5 0.5
21 18.09 С 1 20 км слаб. ливневой дождь 9/9 1000 м
[Ac trans Cs]
+6.6 +6.2 97 +6 +6 по сезону 1008.4 1004.9 +6.2 +11.5 2
22 18.09 СВ 2 20 км н/о +6.6 +2.9 77 +4 +4 по сезону 1008.8 1005.3
23 18.09 С 3 20 км н/о +6.1 +2.4 77 +3 +3 по сезону 1009.5 1006.0
00 19.09 СЗ 1 20 км {ливн. осадки} 10/4 1500 м
[Ac und Cs]
+5.6 +5.6 100 +4 +4 прохладно 1009.7 1006.2 +5.6 +11.0
01 19.09 З 1 20 км н/о +4.5 +2.7 88 +3 +3 по сезону 1009.9 1006.4
02 19.09 С 2 20 км н/о +4.2 +1.3 81 +2 +2 прохладно 1010.3 1006.8
03 19.09 СЗ 2 20 км 10/10 1500 м
[Ac und Cs]
+4.6 +3.2 91 +2 +2 холодно 1010.6 1007.1 +3.2 +9.4
04 19.09 СВ 1 20 км н/о +5.0 +1.0 75 +4 +4 по сезону 1011.1 1007.7
05 19.09 штиль 0 20 км н/о +6.7 +2.3 73 +6 +6 по сезону 1011.5 1008.0
06 19.09 В 2 20 км 9/9 1500 м
[Ac und Cs]
+6.6 +3.2 79 +5 +5 прохладно 1012.0 1008.6 +3.2 +7.3
07 19.09 С 2 20 км н/о +8.1 +0.4 58 +7 +7 по сезону 1012.7 1009.2
08 19.09 СВ 1 20 км н/о +7.9 +0.1 58 +8 +8 по сезону 1013.0 1009.6
09 19.09 СВ 2 20 км 1/0 2000 м
[Ac und Cs]
+8.7 +3.2 68 +7 +12 прохладно 1013.4 1009.9 +3.2 +8.9
10 19.09 20 км н/о +9.8 -0.4 49 1013.5 1010.1
11 19.09 СЗ 3 20 км н/о +9.9 -0.5 48 +8 +8 прохладно 1013.7 1010.2
12 19.09 С 4 20 км 1/1 1000 м
[Ac trans Cs]
+10.3 +3.2 61 +8 +8 прохладно 1013.8 1010.3
13 19.09 СЗ 3 20 км н/о +10.1 -1.3 45 +8 +8 по сезону 1013.9 1010.4
14 19.09 СЗ 3 20 км н/о +9.9 -2.0 43 +8 +8 по сезону 1013.8 1010.4
15 19.09 С 2 20 км 1/1
[Ac As Ci fib]
+9.2 +4.6 73 +8 +8 по сезону 1014.0 1010.6 +4.6 +11.0
16 19.09 ЮЗ 1 20 км н/о +5.9 +0.6 69 +5 +5 по сезону 1014.0 1010.5
17 19.09 Ю 1 20 км н/о +4.9 +1.2 77 +4 +4 прохладно 1014.0 1010.5
18 19.09 ЮЗ 2 20 км 9/0
[Ac cuf Ci fib]
+5.2 +4.2 93 +2 +2 холодно 1013.8 1010.3 +4.2 +11.0
19 19.09 ЮЗ 3 20 км н/о +4.8 -0.1 71 +2 +2 по сезону 1013.5 1010.0
20 19.09 ЮЗ 3 20 км н/о +5.8 +1.3 73 +3 +3 прохладно 1013.6 1010.1 0.3
21 19.09 З 2
{9}
20 км в посл. час дождь 9/5 1000 м
[Ac trans Ci]
+5.4 +4.2 92 +3 +3 прохладно 1013.7 1010.2 +4.2 +11.0 0.4
22 19.09 З 1 14 км н/о +5.5 +3.2 85 +4 +4 по сезону 1014.4 1010.9 2
23 19.09 Ю 2 8000 м н/о +5.2 +2.5 83 +3 +3 по сезону 1014.2 1010.7 1
00 20.09 Ю 2 20 км слаб. ливневой дождь 9/5 600 м
[As op Ci ing]
+4.9 +4.2 95 +2 +2 прохладно 1014.0 1010.5 +4.2 +10.5 4
01 20.09 С 2 20 км н/о +5.3 +2.4 82 +3 +3 по сезону 1014.0 1010.5 1
02 20.09 20 км н/о +5.6 +2.1 78 1014.2 1010.7 0.2
03 20.09 С 3 20 км в посл. час дождь {ливн. осадки} 4/4 1000 м
[Ac lent Ci]
+5.1 +4.1 93 +2 +2 прохладно 1014.5 1011.0 +4.1 +9.4 1
04 20.09 С 3 20 км н/о +4.7 +0.7 75 +1 +1 по сезону 1014.9 1011.4
05 20.09 С 3 20 км н/о +5.2 +0.5 72 +2 +2 по сезону 1015.3 1011.8
06 20.09 С 3 20 км ясно +7.4 +4.1 80 1015.6 1012.1 +4.1 +7.4
07 20.09 С 5 20 км н/о +8.9 -0.1 53 +6 +6 по сезону 1016.2 1012.7
08 20.09 С 5 20 км н/о +9.0 -0.3 52 +6 +6 по сезону 1016.6 1013.1
09 20.09 СЗ 4
{9}
20 км 5/1 1000 м
[Ac trans Cs]
+8.3 +4.1 75 +6 +8 прохладно 1016.8 1013.3 +4.1 +10.2
10 20.09 СЗ 4 20 км н/о +9.7 -1.3 46 +7 +7 по сезону 1016.7 1013.2
11 20.09 СЗ 4 20 км н/о +10.8 -1.0 44 +9 +9 по сезону 1016.4 1013.0
12 20.09 З 4 20 км 4/4 1000 м
[Ac lent Cs]
+10.8 +4.1 63 +9 +9 по сезону 1016.5 1013.0
13 20.09 З 5
{10}
20 км 1/1 1500 м
[]
+10.5 -1.9 42 +8 +9 по сезону 1016.1 1012.7 +4.3 +11.4
14 20.09 З 4 20 км н/о +10.3 -1.3 44 +8 +8 по сезону 1015.7 1012.2
15 20.09 С 2
{9}
20 км 4/4 1000 м
[Ac lent Cs]
+8.6 +4.3 74 +7 +7 прохладно 1015.5 1012.0 +4.3 +11.4
16 20.09 ЮЗ 3 20 км н/о +5.8 +0.2 67 +3 +3 по сезону 1015.2 1011.7 0.4
17 20.09 ЮЗ 3 20 км н/о +5.5 +0.7 71 +2 +2 прохладно 1015.1 1011.6
18 20.09 ЮЗ 2 20 км в посл. час дождь {ливн. осадки} 8/8 1000 м
[Ac lent Ci fib]
+6.6 +5.2 91 +5 +5 прохладно 1015.0 1011.5 +5.2 +11.4 0.4
19 20.09 ЮЗ 3 20 км н/о +5.0 +0.7 74 +2 +2 по сезону 1014.6 1011.1
20 20.09 ЮЗ 3 20 км н/о +4.2 +0.5 77 +1 +1 прохладно 1014.5 1011.0
21 20.09 З 2 17 км слаб. дождь 9/6 1000 м
[Ac lent Ci ing]
+5.7 +1.8 76 +3 +3 прохладно 1014.4 1011.0 +4.1 +11.4
22 20.09 ЮЗ 1 20 км н/о +5.3 +2.7 83 +4 +4 по сезону 1014.1 1010.6 0.1
23 20.09 ЮЗ 3 20 км н/о +5.2 +2.4 82 +2 +2 по сезону 1013.6 1010.1
00 21.09 Ю 2 20 км слаб. ливневой дождь 9/9 600 м
[Ac trans Ci fib]
+5.5 +4.1 91 +3 +3 прохладно 1012.7 1009.2 +4.1 +11.4 0.1
01 21.09 Ю 2 20 км н/о +5.4 +3.1 85 +3 +3 по сезону 1012.1 1008.6 0.2
02 21.09 ЮЗ 3 20 км н/о +5.5 +2.9 83 +2 +2 прохладно 1011.4 1007.9 0.1
03 21.09 ЮЗ 3 20 км слаб. дождь н/о +5.3 +4.1 92 +2 +2 холодно 1010.8 1007.3 +4.1 +8.6 0.3
04 21.09 ЮЗ 3 20 км н/о +5.5 +2.9 83 +2 +2 по сезону 1010.0 1006.5
05 21.09 Ю 2 18 км н/о +5.9 +3.5 85 +3 +3 по сезону 1009.3 1005.8
06 21.09 Ю 2 20 км в посл. час осадки {ливн. осадки} 9/6 1000 м
[Ac trans Cs]
+7.3 +4.1 80 +5 +5 по сезону 1008.7 1005.2 +4.1 +7.3
07 21.09 Ю 2 20 км н/о +8.2 +4.9 80 +6 +6 по сезону 1008.3 1004.8
08 21.09 Ю 2 20 км {ливн. осадки} н/о +8.5 +5.1 79 +7 +7 по сезону 1007.7 1004.2 +4.1 +8.6
09 21.09 Ю 2 20 км 10/10 100 м
[Cs]
+8.1 +4.9 80 +6 +6 прохладно 1007.3 1003.9 +4.9 +8.6
10 21.09 ЮВ 2 20 км н/о +9.5 +5.6 77 +8 +8 по сезону 1007.1 1003.6
11 21.09 ЮВ 2 20 км н/о +9.6 +6.1 79 +8 +8 прохладно 1006.8 1003.3
12 21.09 ЮВ 2 20 км в посл. час дождь {ливн. осадки} 10/10 200 м
[As trans]
+9.3 +5.2 76 +8 +8 прохладно 1006.4 1003.0
13 21.09 Ю 1 8000 м н/о +9.2 +6.2 81 +9 +9 по сезону 1006.4 1002.9 0.1
14 21.09 Ю 1 20 км н/о +9.3 +6.2 81 +9 +9 по сезону 1006.0 1002.6
15 21.09 С 2 3800 м слаб. ливневой дождь {морось} 9/9 100 м
[Ci]
+8.8 +5.2 78 +7 +7 прохладно 1006.2 1002.8 +5.2 +10.1 0.6
16 21.09 СЗ 1 20 км н/о +8.4 +6.3 87 +8 +8 тепло 1006.3 1002.9 0.1
17 21.09 СЗ 1 9000 м н/о +8.2 +6.4 88 +7 +7 по сезону 1006.8 1003.4 0.1
18 21.09 СЗ 1 12 км слаб. дождь 9/9 300 м
[As trans Cc]
+8.1 +7.3 95 +7 +7 по сезону 1007.0 1003.5 +7.3 +10.1 0.2
19 21.09 З 1 20 км н/о +7.2 +5.1 86 +6 +6 по сезону 1006.8 1003.3 0.2
20 21.09 СЗ 2 20 км н/о +8.2 +4.4 77 +6 +6 по сезону 1006.8 1003.3 0.7
21 21.09 С 4
{8}
15 км слаб. ливневой дождь 9/9 600 м
[As op Cs]
+8.0 +7.1 94 +5 +5 прохладно 1007.0 1003.5 +7.1 +10.1 2
22 21.09 С 5 20 км н/о +7.4 +3.0 74 +4 +4 по сезону 1007.2 1003.7 0.7
23 21.09 С 5 17 км н/о +7.0 +3.2 77 +3 +3 по сезону 1007.1 1003.7 0.8
00 22.09 С 3
{9}
20 км в посл. час дождь {ливн. осадки} 8/5 600 м
[As op Cs]
+6.5 +6.3 99 +3 +3 прохладно 1007.3 1003.8 +6.3 +9.4 2
01 22.09 С 4 20 км н/о +6.7 +3.0 77 +3 +3 по сезону 1007.7 1004.2
02 22.09 С 5 20 км н/о +6.1 +1.5 72 +2 +2 прохладно 1008.2 1004.7
03 22.09 С 6-8
{10}
20 км 5/5 1000 м
[Ac und]
+6.1 +6.0 99 +2 +2 прохладно 1008.8 1005.3 +6.0 +8.8
04 22.09 СВ 3 20 км н/о +4.7 +1.0 77 +1 +1 по сезону 1009.7 1006.2
05 22.09 С 4 20 км н/о +5.3 +1.2 75 +1 +1 прохладно 1010.3 1006.8
06 22.09 С 5 20 км ясно +7.7 +3.5 75 +4 +4 прохладно 1010.9 1007.4 +3.5 +8.5
07 22.09 С 5 20 км н/о +8.1 +0.2 57 +5 +5 по сезону 1011.5 1008.0
08 22.09 СЗ 6 20 км н/о +7.8 -0.6 55 +4 +4 прохладно 1012.1 1008.6
09 22.09 С 6-10
{11}
20 км 1/1 600 м
[Ac trans Ci fib]
+8.8 +3.5 69 +5 +7 прохладно 1012.7 1009.2 +3.5 +9.3
10 22.09 20 км н/о +7.8 -1.9 50 1013.4 1009.9
11 22.09 С 6 20 км н/о +8.5 -0.7 52 +5 +5 холодно 1013.9 1010.5
12 22.09 С 5 20 км 8/8 1000 м
[Ac trans Cs]
+9.1 +3.5 68 +6 +6 холодно 1014.3 1010.9
13 22.09 С 4 20 км н/о +8.6 -1.0 51 +6 +6 тепло 1014.8 1011.4

 

Местоположение метеостанции Нарва (Эстония): широта 59.37 долгота 28.12 высота над уровнем моря 30 м.

В архиве по умолчанию представлена погода в Нарве за последнюю неделю. Архивные данные за месяц целиком и за предыдущие месяцы, начиная с января 2011 года, Вы можете получить, выбрав интересующий диапазон дат из раскрывающегося списка и нажав кнопку "Ввод!".


*Определитесь, кто Вы:
робот инопланетянин человек

Внимание! Время в таблицах - всемирное. Для получения местного времени необходимо прибавить поправку, которая равна 2 ч.

Смотрите также архив погоды в соседних городах и на ближайших метеорологических станциях:

Погода в Кингисеппе (Ленинградская область, Россия) (27 км)
Погода в Сланцах (Ленинградская область, Россия) (28 км)
Погода в Йохви (Эстония) (42 км)
Погода в Гдове (Псковская область, Россия) (73 км)
Погода в Сосновом Бору (Ленинградская область, Россия) (77 км)
Погода в Волосово (Ленинградская область, Россия) (78 км)
Погода в Шепелево (Ленинградская область, Россия) (84 км)
Погода в Тиирикое (Эстония) (87 км)
Погода в Кунде (Эстония) (91 км)
Погода в Гогланде (Ленинградская область, Россия) (102 км)

Пояснения к столбцам:

Ветер - указаны скорость ветра в м/с - средняя за 10 мин, порывы в срок и между сроками (в фигурных скобках) и направление, откуда дует ветер: С - северный, СВ - северо-восточный, В - восточный, ЮВ - юго-восточный, Ю - южный, ЮЗ - юго-западный, З - западный, СЗ - северо-западный.
Видимость - горизонтальная дальность видимости в метрах или километрах. При видимости от 1 до 10 км при отсутствии осадков обычно наблюдается дымка, при ухудшении видимости до 1 км и менее - туман. В сухую погоду видимость может ухудшаться дымом, пылью или мглою.
Явления - указаны атмосферные явления, наблюдавшиеся в срок или в последний час перед сроком; фигурными скобками обозначены явления, наблюдавшиеся между сроками (за 1-3 часа до срока); квадратными скобками обозначены град или гололедные отложения с указанием их диаметра в мм.
Облачность - указаны через наклонную черту общая и нижняя облачность в баллах и высота нижней границы облаков в метрах; квадратными скобками обозначены формы облаков: Ci - перистые, Cs - перисто-слоистые, Cc - перисто-кучевые, Ac - высококучевые, As - высокослоистые, Sc - слоисто-кучевые, Ns - слоисто-дождевые, Cu - кучевые, Cb - кучево-дождевые. Подробнее классификацию облаков см. в Атласе облаков (PDF).
T - Температура воздуха - температура, измеренная на высоте 2 м над землей.
Td - Температура точки росы - температура, при понижении до которой содержащийся в воздухе водяной пар достигнет насыщения.
f - Относительная влажность воздуха - влажноcть воздуха, измеренная на высоте 2 м над землей.
Te - Эффективная температура - температура, которую ощущает одетый по сезону человек в тени. Характеристика душности погоды. При расчете учитывается влияние влажности воздуха и скорости ветра на теплоощущения человека.
Tes - Эффективная температура на солнце - температура, которую ощущает человек, с поправкой на солнечный нагрев. Характеристика знойности погоды. Зависит от высоты солнца над горизонтом, облачности и скорости ветра. Ночью, в пасмурную погоду, а также при ветре 12 м/с и более поправка равна нулю.
P - Атмосферное давление - приведенное к уровню моря атмосферное давление.
Po - Атмосферное давление - измеренное на уровне метеостанции атмосферное давление.
Tmin - Минимальная температура - минимум температуры воздуха на высоте 2 м над землей.
Tmax - Максимальная температура - максимум температуры воздуха на высоте 2 м над землей.
R - Количество осадков - Количество выпавших осадков за период времени, мм. При наведении курсора мыши на число - период времени, за который выпало указанное количество осадков.
R24 - Количество осадков - Количество выпавших осадков за 24 часа, мм.
S - Снежный покров - Высота снежного покрова, см. При наведении курсора мыши на число - состояние снежного покрова и степень покрытия местности в баллах.